Montana Department of Transportation

Main Content

Accidents and Incidents Report

Hourly Weather Roundup

ASUS45 KTFX 230210
RWRMT 
MONTANA REGIONAL WEATHER ROUNDUP
NATIONAL WEATHER SERVICE GREAT FALLS MT
800 PM MDT FRI MAY 22 2015

NOTE: "FAIR" INDICATES FEW OR NO CLOUDS BELOW 12000 FEET WITH NO
SIGNIFICANT WEATHER AND/OR OBSTRUCTIONS TO VISIBILITY.

MTZ001.007-043-230300-
WEST OF THE DIVIDE
  
CITY           SKY/WX    TMP DP  RH WIND       PRES   REMARKS
KALISPELL      CLEAR     74  32  21 E13       29.85R                  
MISSOULA       PTSUNNY   70  37  29 NE10      29.84R                  
BUTTE          MOCLDY    55  41  59 S14G22    29.95S                  
MULLAN PASS    CLOUDY    57  35  43 CALM      29.96R                  
DEER LODGE       N/A     63  37  39 NE9       29.96R                  
EUREKA           N/A     75  28  17 N12       29.86R                  
HAMILTON         N/A     61  46  59 E1        29.87R                  
LIBBY            N/A     79  30  17 E5        29.81R                  
RONAN            N/A     72  37  27 N6        29.89R                  
--------------------------------

MTZ008-052.055-230300-
SOUTHWEST MONTANA
  
CITY           SKY/WX    TMP DP  RH WIND       PRES   REMARKS
BOZEMAN        MOCLDY    58  46  64 CALM      29.92R                  
DILLON         CLOUDY    56  44  64 N5        29.92R                  
W YELLOWSTONE  CLOUDY    50  43  76 SE6       29.96R                  
THREE FORKS      N/A     61  61 100 N6        29.92R                  
TWIN BRIDGES     N/A     57  41  55 NW20      29.91R                  
--------------------------------

MTZ009-010-012-014-046-048-049-054-230300-
EAST SLOPES AND CENTRAL MONTANA
  
CITY           SKY/WX    TMP DP  RH WIND       PRES   REMARKS
CUT BANK       CLEAR     65  36  34 NE10      29.96S                  
GREAT FALLS    MOCLDY    62  47  57 E7        29.92S                  
MALMSTROM AFB  PTCLDY    59  52  77 E5        29.93S                  
HELENA         CLOUDY    66  42  41 SE7       29.89S                  
CONRAD           N/A     67  45  45 CALM      29.98S                  
--------------------------------

MTZ011-013-016-021-045-047-050-051-230300-
NORTH CENTRAL MONTANA
  
CITY           SKY/WX    TMP DP  RH WIND       PRES   REMARKS
HAVRE          PTCLDY    71  46  40 SE17G23   29.92R                  
LEWISTOWN      CLOUDY    56  44  64 SE6       29.97R                  
N BAR RANCH    CLOUDY    57  46  67 E8        29.98S                  
CHINOOK          N/A     70  45  40 E10       29.94R                  
FORT BENTON      N/A     70  45  40 CALM      29.92R                  
--------------------------------

MTZ017.020-022.027-061-062-230300-
NORTHEAST MONTANA
  
CITY           SKY/WX    TMP DP  RH WIND       PRES   REMARKS
GLASGOW        PTCLDY    68  42  38 E9        29.96S                  
JORDAN           N/A     67  42  40 SE17      29.94S                  
SIDNEY         MOCLDY    68  34  28 SE10      30.01S                  
WOLF POINT     MOCLDY    69  41  36 SE6       29.98R                  
MALTA            N/A     68  45  43 E1        29.93R                  
PLENTYWOOD       N/A     70  34  26 E8        30.02S                  
POPLAR           N/A     72  34  25 SE9       29.99S                  
SCOBEY           N/A     70  31  23 E12       30.01R                  
--------------------------------

MTZ028.42-056.058-230300-
SOUTHCENTRAL AND SOUTHEAST MONTANA
  
CITY           SKY/WX    TMP DP  RH WIND       PRES   REMARKS
BAKER          MOCLDY    61  42  49 SE15      30.03R                  
BILLINGS       CLOUDY    64  45  49 SE13      29.90S                  
LIVINGSTON     CLOUDY    53  46  77 SE20      29.94R                  
MILES CITY     CLOUDY    65  43  44 SE10      29.96R                  
BIG TIMBER       N/A     54  46  76 W7        29.95S                  
EKALAKA          N/A     56  40  55 SE8       30.01R                  
FORSYTH          N/A     64  43  45 SE10      29.94R                  
LAUREL           N/A     63  44  49 E7        29.90RROUNDUP          N/A     64  44  48 CALM      29.85R                  
--------------------------------

REGIONAL REPORTS...DAKOTAS
  
CITY           SKY/WX    TMP DP  RH WIND       PRES   REMARKS
WILLISTON      PTCLDY    71  31  22 SE12      30.03S                  
MINOT          PTCLDY    68  36  30 SE6       30.06S                  
DICKINSON      MOCLDY    60  37  42 SE10      30.05R                  
BEACH          FAIR      63  37  39 SE12      30.04R                  
CROSBY         FAIR      66  36  32 SE9       30.06R                  
WATFORD CITY   FAIR      66  32  28 SE10      30.03R                  
BISMARCK       CLOUDY    66  41  40 S9        30.08R                  
GRAND FORKS    PTCLDY    63  44  50 S8        30.10S                  
FARGO          PTCLDY    69  40  34 SE6       30.12S                  
BUFFALO SD       N/A     58  38  47 SE20      29.99R                  
RAPID CITY     CLOUDY    52  41  66 SE10      30.08R                  
--------------------------------

REGIONAL REPORTS...WYOMING/IDAHO/WASHINGTON
  
CITY           SKY/WX    TMP DP  RH WIND       PRES   REMARKS
GILLETTE       CLOUDY    50  41  71 SE20G28   30.01R                  
SHERIDAN       CLOUDY    54  45  71 SE23G36   29.94R                  
BUFFALO WY     CLOUDY    49  47  93 S13       30.00S                  
CODY           CLOUDY    50  46  87 CALM      29.96R                  
YELLOWSTONE LA   N/A     42  38  85 VRB3      30.02R                  
IDAHO FALLS    CLOUDY    59  44  57 SW7       29.88R                  
SALMON         MOCLDY    57  46  67 N3        29.88S                  
BOISE          CLOUDY    69  48  47 NE6       29.80S                  
SPOKANE        CLOUDY    73  45  36 SW7       29.80S                  
--------------------------------

REGIONAL REPORTS...ALBERTA
  
CITY           SKY/WX    TMP DP  RH WIND       PRES   REMARKS
EDMONTON       SUNNY     75  32  20 SE7       29.97S                  
CALGARY        MOSUNNY   70  25  18 E10       30.01R                  
LETHBRIDGE     MOSUNNY   70  36  28 E10       29.95S                  
MEDICINE HAT   PTCLDY    73  30  20 E8        29.94S                  
--------------------------------

REGIONAL REPORTS...SASKATCHEWAN
  
CITY           SKY/WX    TMP DP  RH WIND       PRES   REMARKS
SWIFT CURRENT  CLEAR     68  28  22 SE10      30.01R                  
REGINA         PTCLDY    66  37  34 SE8       30.03S                  
SASKATOON      PTCLDY    75  32  20 SW3       30.02S                  
--------------------------------